Printer-friendly version

IAU Minor Planet Center

Minor Planet Center

MPEC 2007-T68 : 2007 TS19

The following Minor Planet Electronic Circular may be linked-to from your own Web pages, but must not otherwise be redistributed electronically.


Read MPEC 2007-T67 Read MPEC 2007-T69


M.P.E.C. 2007-T68                                Issued 2007 Oct. 10, 22:34 UT

     The Minor Planet Electronic Circulars contain information on unusual
         minor planets and routine data on comets.  They are published
   on behalf of Commission 20 of the International Astronomical Union by the
          Minor Planet Center, Smithsonian Astrophysical Observatory,
                          Cambridge, MA 02138, U.S.A.

             Prepared using the Tamkin Foundation Computer Network

                              MPC@CFA.HARVARD.EDU
          URL http://www.cfa.harvard.edu/iau/mpc.html  ISSN 1523-6714

                                   2007 TS19

Observations:
     K07T19S* C2007 10 10.28212 02 08 21.87 -02 15 41.2          17.4 V ET068703
     K07T19S  C2007 10 10.28806 02 08 20.07 -02 15 34.9          17.4 V ET068703
     K07T19S  C2007 10 10.29401 02 08 18.27 -02 15 28.5          17.5 V ET068703
     K07T19S  C2007 10 10.29994 02 08 16.47 -02 15 22.6          17.5 V ET068703
     K07T19S  C2007 10 10.31444102 08 10.75 -02 15 13.3          17.8 V ET068H55
     K07T19S  C2007 10 10.31719302 08 09.95 -02 15 10.4          17.8 V ET068H55
     K07T19S  C2007 10 10.31988702 08 09.09 -02 15 07.6          18.1 V ET068H55
     K07T19S  C2007 10 10.33347502 08 05.02 -02 14 53.1          17.7 V ET068H55
     K07T19S  C2007 10 10.33438 02 08 06.03 -02 14 46.1          17.6 V ET068703
     K07T19S  C2007 10 10.33624102 08 04.17 -02 14 50.1          17.7 V ET068H55
     K07T19S  C2007 10 10.33924802 08 03.26 -02 14 47.3          17.6 V ET068H55
     K07T19S  C2007 10 10.34589 02 08 02.50 -02 14 33.6          17.5 V ET068703
     K07T19S  C2007 10 10.35743 02 07 58.98 -02 14 21.8          17.4 V ET068703
     K07T19S  C2007 10 10.36901 02 07 55.45 -02 14 09.4          17.3 V ET068703
     K07T19S  C2007 10 10.38262 02 07 51.27 -02 13 54.9          17.2 V ET068703
     K07T19S  C2007 10 10.39670 02 07 46.95 -02 13 39.9          17.3 V ET068703
     K07T19S  C2007 10 10.41078 02 07 42.67 -02 13 24.8          17.1 V ET068703
     K07T19S  C2007 10 10.42483 02 07 38.35 -02 13 09.4          17.4 V ET068703
     K07T19S  C2007 10 10.85564 02 05 35.03 -02 05 23.8                 ET068246
     K07T19S  C2007 10 10.85606 02 05 35.03 -02 05 23.8          17.4 R ET068024
     K07T19S  C2007 10 10.85620 02 05 34.85 -02 05 23.0                 ET068246
     K07T19S  C2007 10 10.85693 02 05 34.61 -02 05 22.9                 ET068246
     K07T19S  C2007 10 10.85757 02 05 34.39 -02 05 21.6                 ET068246
     K07T19S  C2007 10 10.85818 02 05 34.37 -02 05 21.1          17.3 R ET068024
     K07T19S  C2007 10 10.85826 02 05 34.31 -02 05 20.1                 ET068246
     K07T19S  C2007 10 10.85977 02 05 33.84 -02 05 19.5          17.4 R ET068024
     K07T19S  C2007 10 10.86061 02 05 33.41 -02 05 18.3                 ET068246
     K07T19S  C2007 10 10.89511 02 05 22.51 -02 04 36.1          17.5 V ET068595
     K07T19S  C2007 10 10.89992 02 05 21.02 -02 04 30.5          16.6 V ET068595
     K07T19S  C2007 10 10.90470 02 05 19.43 -02 04 25.5          17.0 V ET068595

Observer details:
024 Heidelberg-Konigstuhl.  Observer F. Hormuth.  0.70-m reflector + CCD.
246 Klet Observatory-KLENOT.  Observer M. Tichy.  1.06-m KLENOT Telescope
    + CCD.
595 Farra d'Isonzo.  Observers L. Bittesini, G. Lombardi, E. Pettarin.
    Measurers G. Lombardi, E. Pettarin.  0.40-m f/4.5 reflector + CCD.
703 Catalina Sky Survey.  Observer R. A. Kowalski.  Measurers E. C. Beshore,
    A. Boattini, G. J. Garradd, A. R. Gibbs, A. D. Grauer, R. E. Hill,
    R. A. Kowalski, S. M. Larson, R. H. McNaught.  0.68-m Schmidt + CCD.
H55 Astronomical Research Observatory, Charleston.  Observer R. Holmes.
    0.81-m f/4.0 astrograph + CCD.

Orbital elements:
2007 TS19                                           PHA, Earth MOID = 0.0251 AU
Epoch 2007 Oct. 27.0 TT = JDT 2454400.5                 MPC
M 311.63585              (2000.0)            P               Q
n   0.84599049     Peri.  117.08801     -0.76454543     -0.63471151
a   1.1071991      Node    24.04424     +0.44923689     -0.64964531
e   0.5212916      Incl.   15.99928     +0.46222992     -0.41845224
P   1.17           H   20.6           G   0.15           U   9
Residuals in seconds of arc
071010 703  0.2+  0.2-    071010 H55  0.0   0.3-    071010 246  0.0   0.2+
071010 703  0.0   0.1-    071010 703  0.2-  0.4+    071010 246  0.1-  0.6-
071010 703  0.1-  0.1+    071010 703  0.2-  0.1-    071010 246  0.3-  0.0
071010 703  0.2-  0.2-    071010 703  0.0   0.0     071010 024  0.0   0.1+
071010 H55  0.0   0.0     071010 703  0.1-  0.0     071010 246  1.7+  0.7+
071010 H55  0.5+  0.0     071010 703  0.2-  0.1-    071010 024  0.4-  0.1-
071010 H55  0.2-  0.0     071010 703  0.3+  0.1-    071010 246  0.6-  0.2-
071010 H55  0.2+  0.1+    071010 703  0.0   0.2+    071010 595  0.5-  0.1+
071010 703  0.0   0.1+    071010 246  0.1+  0.0     071010 595  0.4+  0.2+
071010 H55  0.0   0.1+    071010 024  0.1-  0.2-    071010 595  0.3-  0.3-

Ephemeris:
2007 TS19                a,e,i = 1.11, 0.52, 16                  q = 0.5300
Date    TT    R. A. (2000) Decl.     Delta      r     Elong.  Phase     V
2007 10 07    02 20.54   -03 00.0    0.171    1.158   155.6    20.9    18.1
2007 10 09    02 13.80   -02 35.4    0.151    1.141   158.8    18.5    17.7
2007 10 11    02 04.81   -02 01.8    0.132    1.125   162.3    15.6    17.3
2007 10 13    01 52.57   -01 14.7    0.113    1.108   166.4    12.2    16.8
2007 10 15    01 35.37   -00 06.9    0.0946   1.091   170.6     8.6    16.3
2007 10 17    01 10.20   +01 34.0    0.0773   1.073   171.6     7.8    15.7
2007 10 19    00 31.55   +04 08.2    0.0618   1.056   163.7    15.3    15.5
2007 10 21    23 30.32   +07 56.7    0.0494   1.038   147.8    30.8    15.5
2007 10 23    21 58.97   +12 27.5    0.0427   1.020   124.0    54.0    15.8
2007 10 25    20 13.96   +15 11.6    0.0443   1.001    97.4    80.1    16.6
2007 10 27    18 50.01   +15 12.9    0.0534   0.983    76.1   100.9    17.9
2007 10 29    17 55.16   +14 09.6    0.0669   0.964    61.8   114.7    19.1

Sonia Keys                   (C) Copyright 2007 MPC           M.P.E.C. 2007-T68

Read MPEC 2007-T67 Read MPEC 2007-T69


Our Web policy. Index to the CBAT/MPC/ICQ pages.


Valid HTML 4.01!